This is the latest recevied weather packets stored in our database for station/object N4HAC. If no packets are shown the sender has not sent any weather packets the latest 10 day(s).
| Time | Temp. | Humidity | Pressure | Rain* | Wind** | Luminosity | Snow |
|---|---|---|---|---|---|---|---|
| 1777724324 | 7.78° C | 67% | 1008.9 hPa | 0 mm | - | 111 W/m² | - |
| 1777724021 | 7.78° C | 66% | 1008.9 hPa | 0 mm | - | 176 W/m² | - |
| 1777723719 | 7.78° C | 66% | 1008.9 hPa | 0 mm | - | 160 W/m² | - |
| 1777723414 | 7.78° C | 66% | 1009 hPa | 0 mm | - | 133 W/m² | - |
| 1777723112 | 7.78° C | 66% | 1009 hPa | 0 mm | - | 117 W/m² | - |
| 1777722809 | 7.78° C | 66% | 1009.1 hPa | 0 mm | - | 125 W/m² | - |
| 1777722506 | 7.78° C | 68% | 1009.1 hPa | 0 mm | - | 148 W/m² | - |
| 1777722203 | 7.78° C | 68% | 1009.4 hPa | 0 mm | - | 135 W/m² | - |
| 1777721899 | 7.78° C | 68% | 1009.5 hPa | 0 mm | - | 142 W/m² | - |
| 1777721597 | 7.78° C | 67% | 1009.2 hPa | 0 mm | - | 94 W/m² | - |
| 1777721295 | 7.78° C | 67% | 1009.1 hPa | 0 mm | - | 95 W/m² | - |
| 1777720992 | 7.78° C | 66% | 1009 hPa | 0 mm | - | 100 W/m² | - |
| 1777720689 | 7.78° C | 67% | 1009.1 hPa | 0 mm | - | 84 W/m² | - |
| 1777720387 | 7.78° C | 67% | 1009.2 hPa | 0 mm | - | 66 W/m² | - |
| 1777720084 | 7.22° C | 68% | 1008.9 hPa | 0 mm | - | 56 W/m² | - |
| 1777719782 | 7.78° C | 67% | 1009 hPa | 0 mm | - | 42 W/m² | - |
| 1777719480 | 7.22° C | 67% | 1009 hPa | 0 mm | - | 40 W/m² | - |
| 1777719176 | 7.78° C | 66% | 1009 hPa | 0 mm | - | 33 W/m² | - |
| 1777718874 | 7.78° C | 67% | 1008.8 hPa | 0 mm | - | 25 W/m² | - |
| 1777718571 | 7.78° C | 67% | 1008.7 hPa | 0 mm | - | 21 W/m² | - |
| 1777718269 | 7.78° C | 66% | 1008.6 hPa | 0 mm | - | 17 W/m² | - |
| 1777717966 | 7.78° C | 67% | 1008.8 hPa | 0 mm | - | 13 W/m² | - |
| 1777717663 | 7.78° C | 66% | 1008.8 hPa | 0 mm | - | 10 W/m² | - |
| 1777717359 | 7.78° C | 66% | 1008.9 hPa | 0 mm | - | 6 W/m² | - |
| 1777717057 | 7.78° C | 66% | 1008.8 hPa | 0 mm | - | 4 W/m² | - |
* Rain latest hour (hover to see other rain measurements)
** Current wind speed in m/s (hover to see current wind gust speed)